Time,TemperatureF,DewpointF,PressureIn,WindDirection,WindDirectionDegrees,WindSpeedMPH,WindSpeedGustMPH,Humidity,HourlyPrecipIn,Conditions,Clouds,dailyrainin,SoftwareType,DateUTC
2013-07-19 00:01:00,74.0,61.5,29.35,ESE,112,0.0,0.0,65,0.00,CLR,OVC,0.00,WeatherDisplay:10.37,2013-07-19 04:01:00,
2013-07-19 00:06:00,74.0,59.7,29.35,ESE,112,0.0,0.0,61,0.00,CLR,OVC,0.00,WeatherDisplay:10.37,2013-07-19 04:06:00,
2013-07-19 00:11:00,74.0,60.6,29.35,ESE,112,0.0,0.0,63,0.00,CLR,OVC,0.00,WeatherDisplay:10.37,2013-07-19 04:11:00,
2013-07-19 00:16:00,74.0,59.7,29.35,ESE,112,0.0,0.0,61,0.00,CLR,OVC,0.00,WeatherDisplay:10.37,2013-07-19 04:16:00,
2013-07-19 00:21:00,74.0,57.3,29.35,ESE,112,0.0,0.0,56,0.00,CLR,OVC,0.00,WeatherDisplay:10.37,2013-07-19 04:21:00,
2013-07-19 00:26:00,74.0,56.8,29.35,ESE,112,0.0,0.0,55,0.00,CLR,OVC,0.00,WeatherDisplay:10.37,2013-07-19 04:26:00,
2013-07-19 00:31:00,74.0,56.3,29.35,ESE,112,0.0,0.0,54,0.00,CLR,OVC,0.00,WeatherDisplay:10.37,2013-07-19 04:31:00,
2013-07-19 00:36:00,73.0,56.9,29.35,ESE,112,0.0,0.0,57,0.00,CLR,OVC,0.00,WeatherDisplay:10.37,2013-07-19 04:36:00,
2013-07-19 00:41:00,73.0,53.8,29.35,ESE,112,0.0,0.0,51,0.00,CLR,OVC,0.00,WeatherDisplay:10.37,2013-07-19 04:41:00,
2013-07-19 00:46:00,73.0,52.7,29.35,ESE,112,0.0,0.0,49,0.00,CLR,OVC,0.00,WeatherDisplay:10.37,2013-07-19 04:46:00,
2013-07-19 00:51:00,73.0,47.9,29.35,ESE,112,0.0,0.0,41,0.00,CLR,OVC,0.00,WeatherDisplay:10.37,2013-07-19 04:51:00,
2013-07-19 00:56:00,73.0,49.8,29.35,ESE,112,0.0,0.0,44,0.00,CLR,OVC,0.00,WeatherDisplay:10.37,2013-07-19 04:56:00,
2013-07-19 01:01:00,73.0,51.0,29.35,ESE,112,0.0,0.0,46,0.00,CLR,OVC,0.00,WeatherDisplay:10.37,2013-07-19 05:01:00,
2013-07-19 01:06:00,73.0,51.0,29.35,ESE,112,0.0,0.0,46,0.00,CLR,OVC,0.00,WeatherDisplay:10.37,2013-07-19 05:06:00,
2013-07-19 01:11:00,73.0,47.2,29.35,ESE,112,0.0,0.0,40,0.00,CLR,OVC,0.00,WeatherDisplay:10.37,2013-07-19 05:11:00,
2013-07-19 01:16:00,73.0,47.2,29.36,ESE,112,0.0,0.0,40,0.00,CLR,OVC,0.00,WeatherDisplay:10.37,2013-07-19 05:16:00,
2013-07-19 01:21:00,73.0,49.2,29.36,ESE,112,0.0,0.0,43,0.00,CLR,OVC,0.00,WeatherDisplay:10.37,2013-07-19 05:21:00,
2013-07-19 01:26:00,73.0,48.5,29.35,ESE,112,0.0,0.0,42,0.00,CLR,OVC,0.00,WeatherDisplay:10.37,2013-07-19 05:26:00,
2013-07-19 01:31:00,73.0,47.9,29.35,ESE,112,0.0,0.0,41,0.00,CLR,OVC,0.00,WeatherDisplay:10.37,2013-07-19 05:31:00,
2013-07-19 01:36:00,73.0,49.2,29.35,ESE,112,0.0,0.0,43,0.00,CLR,OVC,0.00,WeatherDisplay:10.37,2013-07-19 05:36:00,
2013-07-19 01:41:00,73.0,50.4,29.35,ESE,112,0.0,0.0,45,0.00,CLR,OVC,0.00,WeatherDisplay:10.37,2013-07-19 05:41:00,
2013-07-19 01:46:00,73.0,47.2,29.35,ESE,112,0.0,0.0,40,0.00,CLR,OVC,0.00,WeatherDisplay:10.37,2013-07-19 05:46:00,
2013-07-19 01:51:00,73.0,49.2,29.35,ESE,112,0.0,0.0,43,0.00,CLR,OVC,0.00,WeatherDisplay:10.37,2013-07-19 05:51:00,
2013-07-19 01:56:00,73.0,47.2,29.35,ESE,112,0.0,0.0,40,0.00,CLR,OVC,0.00,WeatherDisplay:10.37,2013-07-19 05:56:00,
2013-07-19 02:01:00,73.0,47.9,29.35,ESE,112,0.0,0.0,41,0.00,CLR,OVC,0.00,WeatherDisplay:10.37,2013-07-19 06:01:00,
2013-07-19 02:06:00,73.0,50.4,29.34,ESE,112,0.0,0.0,45,0.00,CLR,OVC,0.00,WeatherDisplay:10.37,2013-07-19 06:06:00,
2013-07-19 02:11:00,73.0,52.1,29.34,ESE,112,0.0,0.0,48,0.00,CLR,OVC,0.00,WeatherDisplay:10.37,2013-07-19 06:11:00,
2013-07-19 02:16:00,73.0,54.9,29.33,ESE,112,0.0,0.0,53,0.00,CLR,OVC,0.00,WeatherDisplay:10.37,2013-07-19 06:16:00,
2013-07-19 02:22:00,73.0,56.4,29.33,WNW,292,0.0,0.0,56,0.00,CLR,OVC,0.00,WeatherDisplay:10.37,2013-07-19 06:22:00,
2013-07-19 02:27:00,73.0,58.3,29.33,WNW,292,0.0,0.0,60,0.00,CLR,OVC,0.00,WeatherDisplay:10.37,2013-07-19 06:27:00,
2013-07-19 02:32:00,73.0,56.4,29.33,WNW,292,0.0,0.0,56,0.00,CLR,OVC,0.00,WeatherDisplay:10.37,2013-07-19 06:32:00,
2013-07-19 02:37:00,73.0,56.9,29.33,WNW,292,0.0,0.0,57,0.00,CLR,OVC,0.00,WeatherDisplay:10.37,2013-07-19 06:37:00,
2013-07-19 02:42:00,73.0,56.4,29.33,WNW,292,0.0,0.0,56,0.00,CLR,OVC,0.00,WeatherDisplay:10.37,2013-07-19 06:42:00,
2013-07-19 02:47:00,73.0,58.3,29.33,WNW,292,0.0,0.0,60,0.00,CLR,OVC,0.00,WeatherDisplay:10.37,2013-07-19 06:47:00,
2013-07-19 02:52:00,73.0,55.4,29.33,WNW,292,0.0,0.0,54,0.00,CLR,OVC,0.00,WeatherDisplay:10.37,2013-07-19 06:52:00,
2013-07-19 02:57:00,73.0,54.3,29.33,WNW,292,0.0,0.0,52,0.00,CLR,OVC,0.00,WeatherDisplay:10.37,2013-07-19 06:57:00,
2013-07-19 03:02:00,72.0,51.8,29.33,WNW,292,0.0,0.0,49,0.00,CLR,OVC,0.00,WeatherDisplay:10.37,2013-07-19 07:02:00,
2013-07-19 03:07:00,72.0,51.8,29.32,WNW,292,0.0,0.0,49,0.00,CLR,OVC,0.00,WeatherDisplay:10.37,2013-07-19 07:07:00,
2013-07-19 03:12:00,72.0,47.0,29.32,WNW,292,0.0,0.0,41,0.00,CLR,OVC,0.00,WeatherDisplay:10.37,2013-07-19 07:12:00,
2013-07-19 03:17:00,72.0,48.9,29.33,WNW,292,0.0,0.0,44,0.00,CLR,OVC,0.00,WeatherDisplay:10.37,2013-07-19 07:17:00,
2013-07-19 03:22:00,72.0,47.0,29.33,WNW,292,0.0,0.0,41,0.00,CLR,OVC,0.00,WeatherDisplay:10.37,2013-07-19 07:22:00,
2013-07-19 03:27:00,72.0,46.3,29.32,WNW,292,0.0,0.0,40,0.00,CLR,OVC,0.00,WeatherDisplay:10.37,2013-07-19 07:27:00,
2013-07-19 03:32:00,72.0,42.8,29.32,WNW,292,0.0,0.0,35,0.00,CLR,OVC,0.00,WeatherDisplay:10.37,2013-07-19 07:32:00,
2013-07-19 03:37:00,72.0,43.6,29.32,WNW,292,0.0,0.0,36,0.00,CLR,OVC,0.00,WeatherDisplay:10.37,2013-07-19 07:37:00,
2013-07-19 03:42:00,72.0,42.1,29.32,WNW,292,0.0,0.0,34,0.00,CLR,OVC,0.00,WeatherDisplay:10.37,2013-07-19 07:42:00,
2013-07-19 03:47:00,72.0,42.1,29.32,WNW,292,0.0,0.0,34,0.00,CLR,OVC,0.00,WeatherDisplay:10.37,2013-07-19 07:47:00,
2013-07-19 03:52:00,72.0,42.8,29.32,WNW,292,0.0,0.0,35,0.00,CLR,OVC,0.00,WeatherDisplay:10.37,2013-07-19 07:52:00,
2013-07-19 03:57:00,72.0,38.9,29.32,WNW,292,0.0,0.0,30,0.00,CLR,OVC,0.00,WeatherDisplay:10.37,2013-07-19 07:57:00,
2013-07-19 04:02:00,72.0,38.0,29.32,WNW,292,0.0,0.0,29,0.00,CLR,OVC,0.00,WeatherDisplay:10.37,2013-07-19 08:02:00,
2013-07-19 04:07:00,72.0,35.2,29.32,WNW,292,0.0,0.0,26,0.00,CLR,OVC,0.00,WeatherDisplay:10.37,2013-07-19 08:07:00,
2013-07-19 04:12:00,72.0,28.7,29.32,WNW,292,0.0,0.0,20,0.00,CLR,OVC,0.00,WeatherDisplay:10.37,2013-07-19 08:12:00,
2013-07-19 04:17:00,72.0,28.7,29.32,WNW,292,0.0,0.0,20,0.00,CLR,OVC,0.00,WeatherDisplay:10.37,2013-07-19 08:17:00,
2013-07-19 04:22:00,72.0,27.5,29.32,WNW,292,0.0,0.0,19,0.00,CLR,OVC,0.00,WeatherDisplay:10.37,2013-07-19 08:22:00,
2013-07-19 04:27:00,72.0,26.1,29.32,WNW,292,0.0,0.0,18,0.00,CLR,OVC,0.00,WeatherDisplay:10.37,2013-07-19 08:27:00,
2013-07-19 04:32:00,72.0,27.5,29.32,WNW,292,0.0,0.0,19,0.00,CLR,OVC,0.00,WeatherDisplay:10.37,2013-07-19 08:32:00,
2013-07-19 04:37:00,72.0,28.7,29.32,WNW,292,0.0,0.0,20,0.00,CLR,OVC,0.00,WeatherDisplay:10.37,2013-07-19 08:37:00,
2013-07-19 04:42:00,72.0,26.1,29.32,WNW,292,0.0,0.0,18,0.00,CLR,OVC,0.00,WeatherDisplay:10.37,2013-07-19 08:42:00,
2013-07-19 04:47:00,72.0,26.1,29.32,WNW,292,0.0,0.0,18,0.00,CLR,OVC,0.00,WeatherDisplay:10.37,2013-07-19 08:47:00,
2013-07-19 04:52:00,72.0,23.3,29.32,WNW,292,0.0,0.0,16,0.00,CLR,OVC,0.00,WeatherDisplay:10.37,2013-07-19 08:52:00,
2013-07-19 04:57:00,72.0,23.3,29.32,WNW,292,0.0,0.0,16,0.00,CLR,OVC,0.00,WeatherDisplay:10.37,2013-07-19 08:57:00,
2013-07-19 05:02:00,72.0,23.3,29.32,WNW,292,0.0,0.0,16,0.00,CLR,OVC,0.00,WeatherDisplay:10.37,2013-07-19 09:02:00,
2013-07-19 05:07:00,72.0,23.3,29.32,WNW,292,0.0,0.0,16,0.00,CLR,OVC,0.00,WeatherDisplay:10.37,2013-07-19 09:07:00,
2013-07-19 05:12:00,72.0,24.8,29.32,WNW,292,0.0,0.0,17,0.00,CLR,OVC,0.00,WeatherDisplay:10.37,2013-07-19 09:12:00,
2013-07-19 05:17:00,71.0,24.0,29.32,WNW,292,0.0,0.0,17,0.00,CLR,OVC,0.00,WeatherDisplay:10.37,2013-07-19 09:17:00,
2013-07-19 05:22:00,71.0,24.0,29.32,WNW,292,0.0,0.0,17,0.00,CLR,OVC,0.00,WeatherDisplay:10.37,2013-07-19 09:22:00,
2013-07-19 05:27:00,71.0,27.9,29.32,WNW,292,0.0,0.0,20,0.00,CLR,OVC,0.00,WeatherDisplay:10.37,2013-07-19 09:27:00,
2013-07-19 05:32:00,71.0,25.3,29.32,WNW,292,0.0,0.0,18,0.00,CLR,OVC,0.00,WeatherDisplay:10.37,2013-07-19 09:32:00,
2013-07-19 05:37:00,71.0,29.1,29.33,WNW,292,0.0,0.0,21,0.00,CLR,OVC,0.00,WeatherDisplay:10.37,2013-07-19 09:37:00,
2013-07-19 05:42:00,71.0,25.3,29.33,WNW,292,0.0,0.0,18,0.00,CLR,OVC,0.00,WeatherDisplay:10.37,2013-07-19 09:42:00,
2013-07-19 05:47:00,71.0,24.0,29.33,WNW,292,0.0,0.0,17,0.00,CLR,OVC,0.00,WeatherDisplay:10.37,2013-07-19 09:47:00,
2013-07-19 05:52:00,71.0,22.5,29.33,WNW,292,0.0,0.0,16,0.00,CLR,OVC,0.00,WeatherDisplay:10.37,2013-07-19 09:52:00,
2013-07-19 05:57:00,71.0,17.6,29.33,WNW,292,0.0,0.0,13,0.00,CLR,OVC,0.00,WeatherDisplay:10.37,2013-07-19 09:57:00,
2013-07-19 06:02:00,71.0,17.6,29.33,WNW,292,0.0,0.0,13,0.00,CLR,OVC,0.00,WeatherDisplay:10.37,2013-07-19 10:02:00,
2013-07-19 06:07:00,71.0,17.6,29.33,WNW,292,0.0,0.0,13,0.00,CLR,OVC,0.00,WeatherDisplay:10.37,2013-07-19 10:07:00,
2013-07-19 06:12:00,71.0,19.4,29.33,WNW,292,0.0,0.0,14,0.00,CLR,OVC,0.00,WeatherDisplay:10.37,2013-07-19 10:12:00,
2013-07-19 06:17:00,71.0,19.4,29.33,WNW,292,0.0,0.0,14,0.00,CLR,OVC,0.00,WeatherDisplay:10.37,2013-07-19 10:17:00,
2013-07-19 06:22:00,71.0,11.6,29.33,WNW,292,0.0,0.0,10,0.00,CLR,OVC,0.00,WeatherDisplay:10.37,2013-07-19 10:22:00,
2013-07-19 06:27:00,71.0,13.8,29.33,WNW,292,0.0,0.0,11,0.00,CLR,OVC,0.00,WeatherDisplay:10.37,2013-07-19 10:27:00,
2013-07-19 06:32:00,71.0,11.6,29.33,WNW,292,0.0,0.0,10,0.00,CLR,OVC,0.00,WeatherDisplay:10.37,2013-07-19 10:32:00,
2013-07-19 06:37:00,71.0,17.6,29.34,WNW,292,0.0,0.0,13,0.00,CLR,OVC,0.00,WeatherDisplay:10.37,2013-07-19 10:37:00,
2013-07-19 06:42:00,71.0,22.5,29.34,WNW,292,0.0,0.0,16,0.00,CLR,OVC,0.00,WeatherDisplay:10.37,2013-07-19 10:42:00,
2013-07-19 06:47:00,71.0,19.4,29.34,WNW,292,0.0,0.0,14,0.00,CLR,OVC,0.00,WeatherDisplay:10.37,2013-07-19 10:47:00,
2013-07-19 06:52:00,71.0,17.6,29.34,WNW,292,0.0,0.0,13,0.00,CLR,OVC,0.00,WeatherDisplay:10.37,2013-07-19 10:52:00,
2013-07-19 06:57:00,71.0,15.8,29.34,WNW,292,0.0,0.0,12,0.00,CLR,OVC,0.00,WeatherDisplay:10.37,2013-07-19 10:57:00,
2013-07-19 07:02:00,71.0,9.3,29.34,WNW,292,0.0,0.0,9,0.00,CLR,OVC,0.00,WeatherDisplay:10.37,2013-07-19 11:02:00,
2013-07-19 07:07:00,71.0,0.4,29.34,WNW,292,0.0,0.0,6,0.00,CLR,OVC,0.00,WeatherDisplay:10.37,2013-07-19 11:07:00,
2013-07-19 07:12:00,71.0,-8.1,29.34,WNW,292,0.0,0.0,4,0.00,CLR,OVC,0.00,WeatherDisplay:10.37,2013-07-19 11:12:00,
2013-07-19 07:17:00,72.0,-7.4,29.34,WNW,292,0.0,0.0,4,0.00,CLR,OVC,0.00,WeatherDisplay:10.37,2013-07-19 11:17:00,
2013-07-19 07:22:00,72.0,99.9,29.34,WNW,292,0.0,0.0,0,0.00,CLR,OVC,0.00,WeatherDisplay:10.37,2013-07-19 11:22:00,
2013-07-19 07:27:00,72.0,-21.2,29.34,WNW,292,0.0,0.0,2,0.00,CLR,OVC,0.00,WeatherDisplay:10.37,2013-07-19 11:27:00,
2013-07-19 07:32:00,72.0,99.9,29.34,SE,135,0.0,0.0,0,0.00,CLR,OVC,0.00,WeatherDisplay:10.37,2013-07-19 11:32:00,
2013-07-19 07:37:00,73.0,99.9,29.34,SE,135,0.0,0.0,0,0.00,CLR,OVC,0.00,WeatherDisplay:10.37,2013-07-19 11:37:00,
2013-07-19 07:42:00,73.0,99.9,29.34,SE,135,0.0,0.0,0,0.00,CLR,OVC,0.00,WeatherDisplay:10.37,2013-07-19 11:42:00,
2013-07-19 07:47:00,73.0,-33.4,29.34,NW,315,0.0,0.0,1,0.00,CLR,OVC,0.00,WeatherDisplay:10.37,2013-07-19 11:47:00,
2013-07-19 07:52:00,73.0,99.9,29.34,NW,315,0.0,0.0,0,0.00,CLR,OVC,0.00,WeatherDisplay:10.37,2013-07-19 11:52:00,
2013-07-19 07:57:00,73.0,-12.6,29.35,NW,315,0.0,0.0,3,0.00,CLR,OVC,0.00,WeatherDisplay:10.37,2013-07-19 11:57:00,
2013-07-19 08:02:00,74.0,99.9,29.35,NW,315,0.0,0.0,0,0.00,CLR,OVC,0.00,WeatherDisplay:10.37,2013-07-19 12:02:00,
2013-07-19 08:07:00,75.0,-19.2,29.35,NW,315,0.0,0.0,2,0.00,CLR,OVC,0.00,WeatherDisplay:10.37,2013-07-19 12:07:00,
2013-07-19 08:12:00,75.0,28.6,29.35,NW,315,0.0,0.0,18,0.00,CLR,OVC,0.00,WeatherDisplay:10.37,2013-07-19 12:12:00,
2013-07-19 08:17:00,76.0,42.3,29.35,NW,315,0.0,0.0,30,0.00,CLR,OVC,0.00,WeatherDisplay:10.37,2013-07-19 12:17:00,
2013-07-19 08:22:00,77.0,46.5,29.35,NW,315,0.0,0.0,34,0.00,CLR,OVC,0.00,WeatherDisplay:10.37,2013-07-19 12:22:00,
2013-07-19 08:27:00,77.0,68.9,29.36,West,270,2.3,0.0,76,0.00,CLR,OVC,0.00,WeatherDisplay:10.37,2013-07-19 12:27:00,
2013-07-19 08:32:00,78.0,67.0,29.36,WSW,247,0.0,0.0,69,0.00,CLR,OVC,0.00,WeatherDisplay:10.37,2013-07-19 12:32:00,
2013-07-19 08:37:00,79.0,76.8,29.36,WSW,247,0.0,0.0,93,0.00,CLR,OVC,0.00,WeatherDisplay:10.37,2013-07-19 12:37:00,
2013-07-19 08:42:00,80.0,80.0,29.36,WSW,247,0.0,0.0,100,0.00,CLR,OVC,0.00,WeatherDisplay:10.37,2013-07-19 12:42:00,
2013-07-19 08:47:00,80.0,80.0,29.36,WSW,247,0.0,0.0,100,0.00,CLR,OVC,0.00,WeatherDisplay:10.37,2013-07-19 12:47:00,
2013-07-19 08:52:00,81.0,81.0,29.36,West,270,0.0,0.0,100,0.00,CLR,OVC,0.00,WeatherDisplay:10.37,2013-07-19 12:52:00,
2013-07-19 08:57:00,82.0,81.7,29.36,West,270,0.0,0.0,99,0.00,CLR,OVC,0.00,WeatherDisplay:10.37,2013-07-19 12:57:00,
2013-07-19 09:02:00,82.0,80.4,29.36,West,270,2.3,0.0,95,0.00,CLR,OVC,0.00,WeatherDisplay:10.37,2013-07-19 13:02:00,
2013-07-19 09:07:00,82.0,79.4,29.36,WSW,247,2.3,2.3,92,0.00,CLR,OVC,0.00,WeatherDisplay:10.37,2013-07-19 13:07:00,
2013-07-19 09:12:00,82.0,79.1,29.36,West,270,3.5,3.5,91,0.00,CLR,OVC,0.00,WeatherDisplay:10.37,2013-07-19 13:12:00,
2013-07-19 09:17:00,82.0,78.8,29.36,West,270,2.3,2.3,90,0.00,CLR,OVC,0.00,WeatherDisplay:10.37,2013-07-19 13:17:00,
2013-07-19 09:22:00,83.0,79.1,29.36,NW,315,2.0,2.0,88,0.00,CLR,OVC,0.00,WeatherDisplay:10.37,2013-07-19 13:22:00,
2013-07-19 09:26:00,83.0,78.7,29.36,South,180,0.0,0.0,87,0.00,CLR,OVC,0.00,WeatherDisplay:10.37,2013-07-19 13:26:00,
2013-07-19 09:31:00,84.0,78.6,29.36,South,180,0.0,0.0,84,0.00,CLR,OVC,0.00,WeatherDisplay:10.37,2013-07-19 13:31:00,
2013-07-19 09:36:00,84.0,77.9,29.35,North,360,3.5,3.5,82,0.00,CLR,OVC,0.00,WeatherDisplay:10.37,2013-07-19 13:36:00,
2013-07-19 09:41:00,85.0,78.1,29.35,West,270,0.0,0.0,80,0.00,CLR,OVC,0.00,WeatherDisplay:10.37,2013-07-19 13:41:00,
2013-07-19 09:46:00,85.0,78.5,29.35,WSW,247,1.2,1.2,81,0.00,CLR,OVC,0.00,WeatherDisplay:10.37,2013-07-19 13:46:00,
2013-07-19 09:51:00,85.0,77.4,29.35,SSW,202,1.2,1.2,78,0.00,CLR,OVC,0.00,WeatherDisplay:10.37,2013-07-19 13:51:00,
2013-07-19 09:56:00,85.0,77.0,29.35,NW,315,2.3,2.3,77,0.00,CLR,OVC,0.00,WeatherDisplay:10.37,2013-07-19 13:56:00,
2013-07-19 10:01:00,86.0,77.9,29.35,West,270,3.5,3.5,77,0.00,CLR,OVC,0.00,WeatherDisplay:10.37,2013-07-19 14:01:00,
2013-07-19 10:06:00,85.0,77.4,29.35,NW,315,3.5,3.5,78,0.00,CLR,OVC,0.00,WeatherDisplay:10.37,2013-07-19 14:06:00,
2013-07-19 10:11:00,85.0,77.8,29.35,NW,315,3.5,3.5,79,0.00,CLR,OVC,0.00,WeatherDisplay:10.37,2013-07-19 14:11:00,
2013-07-19 10:16:00,85.0,77.0,29.35,NW,315,3.5,3.5,77,0.00,CLR,OVC,0.00,WeatherDisplay:10.37,2013-07-19 14:16:00,
2013-07-19 10:21:00,86.0,79.1,29.35,WNW,292,0.0,0.0,80,0.00,CLR,OVC,0.00,WeatherDisplay:10.37,2013-07-19 14:21:00,
2013-07-19 10:26:00,87.0,78.9,29.35,SW,225,0.0,0.0,77,0.00,CLR,OVC,0.00,WeatherDisplay:10.37,2013-07-19 14:26:00,
2013-07-19 10:31:00,88.0,77.0,29.35,SW,225,0.0,0.0,70,0.00,CLR,OVC,0.00,WeatherDisplay:10.37,2013-07-19 14:31:00,
2013-07-19 10:36:00,88.0,76.5,29.34,West,270,0.0,0.0,69,0.00,CLR,OVC,0.00,WeatherDisplay:10.37,2013-07-19 14:36:00,
2013-07-19 10:41:00,86.0,75.5,29.34,NW,315,0.0,0.0,71,0.00,CLR,OVC,0.00,WeatherDisplay:10.37,2013-07-19 14:41:00,
2013-07-19 10:46:00,87.0,76.9,29.34,West,270,0.0,0.0,72,0.00,CLR,OVC,0.00,WeatherDisplay:10.37,2013-07-19 14:46:00,
2013-07-19 10:51:00,87.0,75.6,29.34,NW,315,0.0,0.0,69,0.00,CLR,OVC,0.00,WeatherDisplay:10.37,2013-07-19 14:51:00,
2013-07-19 10:56:00,88.0,77.0,29.34,West,270,0.0,0.0,70,0.00,CLR,OVC,0.00,WeatherDisplay:10.37,2013-07-19 14:56:00,
2013-07-19 11:01:00,89.0,77.1,29.34,ESE,112,0.0,0.0,68,0.00,CLR,OVC,0.00,WeatherDisplay:10.37,2013-07-19 15:01:00,
2013-07-19 11:06:00,88.0,75.7,29.34,SW,225,0.0,0.0,67,0.00,CLR,OVC,0.00,WeatherDisplay:10.37,2013-07-19 15:06:00,
2013-07-19 11:11:00,88.0,77.0,29.34,NW,315,0.0,0.0,70,0.00,CLR,OVC,0.00,WeatherDisplay:10.37,2013-07-19 15:11:00,
2013-07-19 11:16:00,87.0,76.9,29.34,WNW,292,0.0,0.0,72,0.00,CLR,OVC,0.00,WeatherDisplay:10.37,2013-07-19 15:16:00,
2013-07-19 11:21:00,86.0,75.9,29.34,West,270,3.5,3.5,72,0.00,CLR,OVC,0.00,WeatherDisplay:10.37,2013-07-19 15:21:00,
2013-07-19 11:26:00,85.0,75.4,29.34,West,270,1.2,1.2,73,0.00,CLR,OVC,0.00,WeatherDisplay:10.37,2013-07-19 15:26:00,
2013-07-19 11:31:00,85.0,76.2,29.34,North,360,3.0,3.0,75,0.00,CLR,OVC,0.00,WeatherDisplay:10.37,2013-07-19 15:31:00,
2013-07-19 11:36:00,85.0,76.6,29.34,WNW,292,3.5,3.5,76,0.00,CLR,OVC,0.00,WeatherDisplay:10.37,2013-07-19 15:36:00,
2013-07-19 11:41:00,85.0,77.0,29.34,NW,315,1.2,1.2,77,0.00,CLR,OVC,0.00,WeatherDisplay:10.37,2013-07-19 15:41:00,
2013-07-19 11:46:00,85.0,76.6,29.34,West,270,0.0,0.0,76,0.00,CLR,OVC,0.00,WeatherDisplay:10.37,2013-07-19 15:46:00,
2013-07-19 11:51:00,85.0,77.8,29.34,NW,315,0.0,0.0,79,0.00,CLR,OVC,0.00,WeatherDisplay:10.37,2013-07-19 15:51:00,
2013-07-19 11:56:00,86.0,76.3,29.34,West,270,3.5,3.5,73,0.00,CLR,OVC,0.00,WeatherDisplay:10.37,2013-07-19 15:56:00,
2013-07-19 12:01:00,88.0,78.3,29.34,NW,315,0.0,0.0,73,0.00,CLR,OVC,0.00,WeatherDisplay:10.37,2013-07-19 16:01:00,
2013-07-19 12:06:00,89.0,77.1,29.33,SW,225,0.0,0.0,68,0.00,CLR,OVC,0.00,WeatherDisplay:10.37,2013-07-19 16:06:00,
2013-07-19 12:11:00,88.0,75.7,29.33,WNW,292,0.0,0.0,67,0.00,CLR,OVC,0.00,WeatherDisplay:10.37,2013-07-19 16:11:00,
2013-07-19 12:16:00,89.0,76.2,29.33,WNW,292,0.0,0.0,66,0.00,CLR,OVC,0.00,WeatherDisplay:10.37,2013-07-19 16:16:00,
2013-07-19 12:21:00,89.0,76.6,29.33,West,270,0.0,0.0,67,0.00,CLR,OVC,0.00,WeatherDisplay:10.37,2013-07-19 16:21:00,
2013-07-19 12:26:00,89.0,76.2,29.33,SW,225,0.0,0.0,66,0.00,CLR,OVC,0.00,WeatherDisplay:10.37,2013-07-19 16:26:00,
2013-07-19 12:31:00,89.0,75.7,29.33,SW,225,0.0,0.0,65,0.00,CLR,OVC,0.00,WeatherDisplay:10.37,2013-07-19 16:31:00,
2013-07-19 12:36:00,90.0,75.7,29.32,WSW,247,0.0,0.0,63,0.00,CLR,OVC,0.00,WeatherDisplay:10.37,2013-07-19 16:36:00,
2013-07-19 12:41:00,89.0,75.7,29.32,NNE,22,0.0,0.0,65,0.00,CLR,OVC,0.00,WeatherDisplay:10.37,2013-07-19 16:41:00,
2013-07-19 12:47:00,89.0,75.7,29.31,West,270,0.0,0.0,65,0.00,CLR,OVC,0.00,WeatherDisplay:10.37,2013-07-19 16:47:00,
2013-07-19 12:52:00,89.0,77.1,29.31,WNW,292,0.0,0.0,68,0.00,CLR,OVC,0.00,WeatherDisplay:10.37,2013-07-19 16:52:00,
2013-07-19 12:57:00,90.0,76.6,29.31,NNE,22,0.0,0.0,65,0.00,CLR,OVC,0.00,WeatherDisplay:10.37,2013-07-19 16:57:00,
2013-07-19 13:02:00,90.0,75.7,29.31,West,270,0.0,0.0,63,0.00,CLR,OVC,0.00,WeatherDisplay:10.37,2013-07-19 17:02:00,
2013-07-19 13:07:00,90.0,75.7,29.30,WNW,292,0.0,0.0,63,0.00,CLR,OVC,0.00,WeatherDisplay:10.37,2013-07-19 17:07:00,
2013-07-19 13:12:00,90.0,75.7,29.30,WSW,247,0.0,0.0,63,0.00,CLR,OVC,0.00,WeatherDisplay:10.37,2013-07-19 17:12:00,
2013-07-19 13:17:00,90.0,75.7,29.30,NW,315,0.0,0.0,63,0.00,CLR,OVC,0.00,WeatherDisplay:10.37,2013-07-19 17:17:00,
2013-07-19 13:22:00,90.0,75.2,29.30,WNW,292,0.0,0.0,62,0.00,CLR,OVC,0.00,WeatherDisplay:10.37,2013-07-19 17:22:00,
2013-07-19 13:27:00,90.0,75.7,29.31,NW,315,0.0,0.0,63,0.00,CLR,OVC,0.00,WeatherDisplay:10.37,2013-07-19 17:27:00,
2013-07-19 13:32:00,90.0,76.2,29.31,NNE,22,0.0,0.0,64,0.00,CLR,OVC,0.00,WeatherDisplay:10.37,2013-07-19 17:32:00,
2013-07-19 13:37:00,90.0,74.7,29.31,NW,315,0.0,0.0,61,0.00,CLR,OVC,0.00,WeatherDisplay:10.37,2013-07-19 17:37:00,
2013-07-19 13:42:00,90.0,75.2,29.31,WNW,292,0.0,0.0,62,0.00,CLR,OVC,0.00,WeatherDisplay:10.37,2013-07-19 17:42:00,
2013-07-19 13:47:00,89.0,74.8,29.30,West,270,0.0,0.0,63,0.00,CLR,OVC,0.00,WeatherDisplay:10.37,2013-07-19 17:47:00,
2013-07-19 13:52:00,89.0,74.8,29.30,ENE,67,0.0,0.0,63,0.00,CLR,OVC,0.00,WeatherDisplay:10.37,2013-07-19 17:52:00,
2013-07-19 13:57:00,90.0,75.2,29.29,SSW,202,0.0,0.0,62,0.00,CLR,OVC,0.00,WeatherDisplay:10.37,2013-07-19 17:57:00,
2013-07-19 14:02:00,90.0,76.2,29.29,WSW,247,0.0,0.0,64,0.00,CLR,OVC,0.00,WeatherDisplay:10.37,2013-07-19 18:02:00,
2013-07-19 14:07:00,90.0,75.7,29.29,NW,315,0.0,0.0,63,0.00,CLR,OVC,0.00,WeatherDisplay:10.37,2013-07-19 18:07:00,
2013-07-19 14:12:00,91.0,73.7,29.29,SE,135,0.0,0.0,57,0.00,CLR,OVC,0.00,WeatherDisplay:10.37,2013-07-19 18:12:00,
2013-07-19 14:17:00,91.0,74.7,29.29,NE,45,0.0,0.0,59,0.00,CLR,OVC,0.00,WeatherDisplay:10.37,2013-07-19 18:17:00,
2013-07-19 14:22:00,91.0,75.2,29.29,West,270,0.0,0.0,60,0.00,CLR,OVC,0.00,WeatherDisplay:10.37,2013-07-19 18:22:00,
2013-07-19 14:27:00,91.0,74.7,29.28,SW,225,0.0,0.0,59,0.00,CLR,OVC,0.00,WeatherDisplay:10.37,2013-07-19 18:27:00,
2013-07-19 14:32:00,90.0,72.7,29.28,West,270,0.0,0.0,57,0.00,CLR,OVC,0.00,WeatherDisplay:10.37,2013-07-19 18:32:00,
2013-07-19 14:37:00,91.0,75.2,29.28,SSW,202,0.0,0.0,60,0.00,CLR,OVC,0.00,WeatherDisplay:10.37,2013-07-19 18:37:00,
2013-07-19 14:42:00,91.0,73.1,29.28,West,270,0.0,0.0,56,0.00,CLR,OVC,0.00,WeatherDisplay:10.37,2013-07-19 18:42:00,
2013-07-19 14:47:00,90.0,73.7,29.28,West,270,0.0,0.0,59,0.00,CLR,OVC,0.00,WeatherDisplay:10.37,2013-07-19 18:47:00,
2013-07-19 14:52:00,90.0,75.7,29.28,NW,315,0.0,0.0,63,0.00,CLR,OVC,0.00,WeatherDisplay:10.37,2013-07-19 18:52:00,
2013-07-19 14:57:00,91.0,74.7,29.28,WSW,247,0.0,0.0,59,0.00,CLR,OVC,0.00,WeatherDisplay:10.37,2013-07-19 18:57:00,
2013-07-19 15:02:00,92.0,75.1,29.28,WSW,247,0.0,0.0,58,0.00,CLR,OVC,0.00,WeatherDisplay:10.37,2013-07-19 19:02:00,
2013-07-19 15:07:00,92.0,74.6,29.27,NE,45,0.0,0.0,57,0.00,CLR,OVC,0.00,WeatherDisplay:10.37,2013-07-19 19:07:00,
2013-07-19 15:12:00,92.0,75.6,29.27,NNE,22,0.0,0.0,59,0.00,CLR,OVC,0.00,WeatherDisplay:10.37,2013-07-19 19:12:00,
2013-07-19 15:17:00,92.0,76.1,29.27,South,180,0.0,0.0,60,0.00,CLR,OVC,0.00,WeatherDisplay:10.37,2013-07-19 19:17:00,
2013-07-19 15:22:00,91.0,74.7,29.27,NW,315,0.0,0.0,59,0.00,CLR,OVC,0.00,WeatherDisplay:10.37,2013-07-19 19:22:00,
2013-07-19 15:27:00,90.0,74.7,29.27,West,270,3.5,3.5,61,0.00,CLR,OVC,0.00,WeatherDisplay:10.37,2013-07-19 19:27:00,
2013-07-19 15:32:00,90.0,74.7,29.27,West,270,4.0,0.0,61,0.00,CLR,OVC,0.00,WeatherDisplay:10.37,2013-07-19 19:32:00,
2013-07-19 15:37:00,90.0,74.7,29.27,WSW,247,0.0,0.0,61,0.00,CLR,OVC,0.00,WeatherDisplay:10.37,2013-07-19 19:37:00,
2013-07-19 15:42:00,90.0,74.7,29.27,WSW,247,3.5,3.5,61,0.00,CLR,OVC,0.00,WeatherDisplay:10.37,2013-07-19 19:42:00,
2013-07-19 15:47:00,90.0,74.7,29.26,SW,225,0.0,0.0,61,0.00,CLR,OVC,0.00,WeatherDisplay:10.37,2013-07-19 19:47:00,
2013-07-19 15:52:00,91.0,75.7,29.26,West,270,0.0,0.0,61,0.00,CLR,OVC,0.00,WeatherDisplay:10.37,2013-07-19 19:52:00,
2013-07-19 15:57:00,91.0,75.2,29.25,SW,225,0.0,0.2,60,0.00,CLR,OVC,0.00,WeatherDisplay:10.37,2013-07-19 19:57:00,
2013-07-19 16:02:00,92.0,75.6,29.25,South,180,0.0,0.0,59,0.00,CLR,OVC,0.00,WeatherDisplay:10.37,2013-07-19 20:02:00,
2013-07-19 16:07:00,92.0,74.6,29.24,SW,225,0.0,0.0,57,0.00,CLR,OVC,0.00,WeatherDisplay:10.37,2013-07-19 20:07:00,
2013-07-19 16:12:00,92.0,74.1,29.24,SW,225,0.0,0.0,56,0.00,CLR,OVC,0.00,WeatherDisplay:10.37,2013-07-19 20:12:00,
2013-07-19 16:17:00,92.0,75.6,29.24,West,270,0.0,0.0,59,0.00,CLR,OVC,0.00,WeatherDisplay:10.37,2013-07-19 20:17:00,
2013-07-19 16:22:00,91.0,74.7,29.24,WNW,292,2.3,2.3,59,0.00,CLR,OVC,0.00,WeatherDisplay:10.37,2013-07-19 20:22:00,
2013-07-19 16:27:00,91.0,74.7,29.24,ENE,67,0.0,0.0,59,0.00,CLR,OVC,0.00,WeatherDisplay:10.37,2013-07-19 20:27:00,
2013-07-19 16:33:00,91.0,74.7,29.24,NW,315,0.0,0.0,59,0.00,CLR,OVC,0.00,WeatherDisplay:10.37,2013-07-19 20:33:00,
2013-07-19 16:38:00,91.0,74.7,29.24,WSW,247,0.0,0.0,59,0.00,CLR,OVC,0.00,WeatherDisplay:10.37,2013-07-19 20:38:00,
2013-07-19 16:43:00,92.0,75.6,29.24,SW,225,0.0,0.0,59,0.00,CLR,OVC,0.00,WeatherDisplay:10.37,2013-07-19 20:43:00,
2013-07-19 16:48:00,91.0,74.2,29.23,SW,225,2.3,2.3,58,0.00,CLR,OVC,0.00,WeatherDisplay:10.37,2013-07-19 20:48:00,
2013-07-19 16:53:00,91.0,75.7,29.23,WSW,247,0.0,0.0,61,0.00,CLR,OVC,0.00,WeatherDisplay:10.37,2013-07-19 20:53:00,
2013-07-19 16:58:00,91.0,75.7,29.24,West,270,0.0,0.0,61,0.00,CLR,OVC,0.00,WeatherDisplay:10.37,2013-07-19 20:58:00,
2013-07-19 17:03:00,91.0,75.2,29.24,NNW,337,3.5,3.5,60,0.00,CLR,OVC,0.00,WeatherDisplay:10.37,2013-07-19 21:03:00,
2013-07-19 17:08:00,92.0,76.1,29.23,North,360,0.0,0.0,60,0.00,CLR,OVC,0.00,WeatherDisplay:10.37,2013-07-19 21:08:00,
2013-07-19 17:13:00,91.0,75.2,29.23,West,270,0.0,0.0,60,0.00,CLR,OVC,0.00,WeatherDisplay:10.37,2013-07-19 21:13:00,
2013-07-19 17:18:00,91.0,74.7,29.23,SW,225,3.5,3.5,59,0.00,CLR,OVC,0.00,WeatherDisplay:10.37,2013-07-19 21:18:00,
2013-07-19 17:23:00,90.0,75.2,29.23,NW,315,2.3,2.3,62,0.00,CLR,OVC,0.00,WeatherDisplay:10.37,2013-07-19 21:23:00,
2013-07-19 17:28:00,90.0,74.7,29.24,West,270,2.3,2.3,61,0.00,CLR,OVC,0.00,WeatherDisplay:10.37,2013-07-19 21:28:00,
2013-07-19 17:33:00,90.0,76.2,29.24,ENE,67,0.0,0.0,64,0.00,CLR,OVC,0.00,WeatherDisplay:10.37,2013-07-19 21:33:00,
2013-07-19 17:38:00,90.0,74.7,29.24,West,270,3.5,3.5,61,0.00,CLR,OVC,0.00,WeatherDisplay:10.37,2013-07-19 21:38:00,
2013-07-19 17:43:00,89.0,74.8,29.24,SW,225,3.5,3.5,63,0.00,CLR,OVC,0.00,WeatherDisplay:10.37,2013-07-19 21:43:00,
2013-07-19 17:48:00,88.0,74.8,29.24,NW,315,0.0,0.0,65,0.00,CLR,OVC,0.00,WeatherDisplay:10.37,2013-07-19 21:48:00,
2013-07-19 17:53:00,87.0,73.8,29.24,NW,315,3.5,3.5,65,0.00,CLR,OVC,0.00,WeatherDisplay:10.37,2013-07-19 21:53:00,
2013-07-19 17:58:00,87.0,74.7,29.24,SW,225,2.3,2.3,67,0.00,CLR,OVC,0.00,WeatherDisplay:10.37,2013-07-19 21:58:00,
2013-07-19 18:03:00,86.0,73.8,29.24,NW,315,4.6,4.6,67,0.00,CLR,OVC,0.00,WeatherDisplay:10.37,2013-07-19 22:03:00,
2013-07-19 18:08:00,86.0,74.2,29.24,South,180,0.0,0.0,68,0.00,CLR,OVC,0.00,WeatherDisplay:10.37,2013-07-19 22:08:00,
2013-07-19 18:13:00,86.0,74.2,29.23,South,180,2.3,2.3,68,0.00,CLR,OVC,0.00,WeatherDisplay:10.37,2013-07-19 22:13:00,
2013-07-19 18:18:00,85.0,74.1,29.23,North,360,0.0,0.0,70,0.00,CLR,OVC,0.00,WeatherDisplay:10.37,2013-07-19 22:18:00,
2013-07-19 18:23:00,85.0,74.5,29.23,West,270,3.5,3.5,71,0.00,CLR,OVC,0.00,WeatherDisplay:10.37,2013-07-19 22:23:00,
2013-07-19 18:28:00,85.0,75.0,29.23,SSW,202,0.0,0.0,72,0.00,CLR,OVC,0.00,WeatherDisplay:10.37,2013-07-19 22:28:00,
2013-07-19 18:33:00,85.0,75.4,29.23,West,270,2.3,2.3,73,0.00,CLR,OVC,0.00,WeatherDisplay:10.37,2013-07-19 22:33:00,
2013-07-19 18:38:00,85.0,75.4,29.23,WSW,247,0.0,0.2,73,0.00,CLR,OVC,0.00,WeatherDisplay:10.37,2013-07-19 22:38:00,
2013-07-19 18:43:00,85.0,75.0,29.23,WSW,247,0.0,0.0,72,0.00,CLR,OVC,0.00,WeatherDisplay:10.37,2013-07-19 22:43:00,
2013-07-19 18:48:00,85.0,75.4,29.23,WSW,247,3.5,0.0,73,0.00,CLR,OVC,0.00,WeatherDisplay:10.37,2013-07-19 22:48:00,
2013-07-19 18:53:00,85.0,75.8,29.23,West,270,0.0,0.0,74,0.00,CLR,OVC,0.00,WeatherDisplay:10.37,2013-07-19 22:53:00,
2013-07-19 18:58:00,84.0,74.8,29.23,NNW,337,1.2,1.2,74,0.00,CLR,OVC,0.00,WeatherDisplay:10.37,2013-07-19 22:58:00,
2013-07-19 19:03:00,84.0,75.2,29.23,NW,315,0.0,0.0,75,0.00,CLR,OVC,0.00,WeatherDisplay:10.37,2013-07-19 23:03:00,
2013-07-19 19:08:00,84.0,75.2,29.23,WSW,247,0.0,0.0,75,0.00,CLR,OVC,0.00,WeatherDisplay:10.37,2013-07-19 23:08:00,
2013-07-19 19:13:00,84.0,75.6,29.23,WSW,247,0.0,0.0,76,0.00,CLR,OVC,0.00,WeatherDisplay:10.37,2013-07-19 23:13:00,
2013-07-19 19:18:00,83.0,74.6,29.23,North,360,0.0,0.0,76,0.00,CLR,OVC,0.00,WeatherDisplay:10.37,2013-07-19 23:18:00,
2013-07-19 19:23:00,83.0,74.6,29.24,WNW,292,0.0,0.1,76,0.00,CLR,OVC,0.00,WeatherDisplay:10.37,2013-07-19 23:23:00,
2013-07-19 19:28:00,83.0,73.9,29.24,WNW,292,0.0,0.0,74,0.00,CLR,OVC,0.00,WeatherDisplay:10.37,2013-07-19 23:28:00,
2013-07-19 19:33:00,83.0,73.9,29.24,WNW,292,2.3,0.0,74,0.00,CLR,OVC,0.00,WeatherDisplay:10.37,2013-07-19 23:33:00,
2013-07-19 19:38:00,83.0,75.0,29.24,WNW,292,0.0,0.0,77,0.00,CLR,OVC,0.00,WeatherDisplay:10.37,2013-07-19 23:38:00,
2013-07-19 19:44:00,82.0,73.7,29.24,ENE,67,0.0,0.0,76,0.00,CLR,OVC,0.00,WeatherDisplay:10.37,2013-07-19 23:44:00,
2013-07-19 19:49:00,82.0,75.2,29.24,NW,315,0.0,0.0,80,0.00,CLR,OVC,0.00,WeatherDisplay:10.37,2013-07-19 23:49:00,
2013-07-19 19:54:00,81.0,74.6,29.24,NW,315,0.0,0.0,81,0.00,CLR,OVC,0.00,WeatherDisplay:10.37,2013-07-19 23:54:00,
2013-07-19 19:59:00,81.0,76.8,29.24,WSW,247,0.0,0.0,87,0.00,CLR,OVC,0.00,WeatherDisplay:10.37,2013-07-19 23:59:00,
2013-07-19 20:04:00,80.0,75.8,29.24,North,360,0.0,0.0,87,0.00,CLR,OVC,0.00,WeatherDisplay:10.37,2013-07-20 00:04:00,
2013-07-19 20:09:00,80.0,76.8,29.24,North,360,0.0,0.0,90,0.00,CLR,OVC,0.00,WeatherDisplay:10.37,2013-07-20 00:09:00,
2013-07-19 20:34:00,78.0,76.5,29.25,North,360,0.0,0.0,95,0.00,CLR,OVC,0.00,WeatherDisplay:10.37,2013-07-20 00:34:00,
2013-07-19 20:39:00,78.0,76.5,29.25,East,90,0.0,0.0,95,0.00,CLR,OVC,0.00,WeatherDisplay:10.37,2013-07-20 00:39:00,
2013-07-19 20:44:00,78.0,77.4,29.25,East,90,0.0,0.0,98,0.00,CLR,OVC,0.00,WeatherDisplay:10.37,2013-07-20 00:44:00,
2013-07-19 20:49:00,77.0,77.0,29.25,East,90,0.0,0.0,100,0.00,CLR,OVC,0.00,WeatherDisplay:10.37,2013-07-20 00:49:00,
2013-07-19 20:54:00,77.0,77.0,29.24,NNE,22,0.0,0.0,100,0.00,CLR,OVC,0.00,WeatherDisplay:10.37,2013-07-20 00:54:00,
2013-07-19 20:59:00,77.0,77.0,29.24,NNE,22,0.0,0.0,100,0.00,CLR,OVC,0.00,WeatherDisplay:10.37,2013-07-20 00:59:00,
2013-07-19 21:04:00,77.0,77.0,29.24,NNE,22,0.0,0.0,100,0.00,CLR,OVC,0.00,WeatherDisplay:10.37,2013-07-20 01:04:00,
2013-07-19 21:09:00,76.0,76.0,29.24,NNE,22,0.0,0.0,100,0.00,CLR,OVC,0.00,WeatherDisplay:10.37,2013-07-20 01:09:00,
2013-07-19 21:14:00,77.0,77.0,29.24,NNE,22,0.0,0.0,100,0.00,CLR,OVC,0.00,WeatherDisplay:10.37,2013-07-20 01:14:00,
2013-07-19 21:19:00,76.0,76.0,29.24,NNE,22,0.0,0.0,100,0.00,CLR,OVC,0.00,WeatherDisplay:10.37,2013-07-20 01:19:00,
2013-07-19 21:24:00,76.0,76.0,29.26,NNE,22,0.0,0.0,100,0.00,CLR,OVC,0.00,WeatherDisplay:10.37,2013-07-20 01:24:00,
2013-07-19 21:29:00,76.0,76.0,29.26,NNE,22,0.0,0.0,100,0.00,CLR,OVC,0.00,WeatherDisplay:10.37,2013-07-20 01:29:00,
2013-07-19 21:34:00,76.0,76.0,29.26,NNE,22,0.0,0.0,100,0.00,CLR,OVC,0.00,WeatherDisplay:10.37,2013-07-20 01:34:00,
2013-07-19 21:39:00,76.0,76.0,29.26,NNE,22,0.0,0.0,100,0.00,CLR,OVC,0.00,WeatherDisplay:10.37,2013-07-20 01:39:00,
2013-07-19 21:44:00,76.0,76.0,29.26,NNE,22,0.0,0.0,100,0.00,CLR,OVC,0.00,WeatherDisplay:10.37,2013-07-20 01:44:00,
2013-07-19 21:49:00,75.0,75.0,29.26,NNE,22,0.0,0.0,100,0.00,CLR,OVC,0.00,WeatherDisplay:10.37,2013-07-20 01:49:00,
2013-07-19 21:54:00,75.0,75.0,29.27,NNE,22,0.0,0.0,100,0.00,CLR,OVC,0.00,WeatherDisplay:10.37,2013-07-20 01:54:00,
2013-07-19 21:59:00,75.0,75.0,29.27,NNE,22,0.0,0.0,100,0.00,CLR,OVC,0.00,WeatherDisplay:10.37,2013-07-20 01:59:00,
2013-07-19 22:04:00,75.0,75.0,29.27,NNE,22,0.0,0.0,100,0.00,CLR,OVC,0.00,WeatherDisplay:10.37,2013-07-20 02:04:00,
2013-07-19 22:09:00,75.0,75.0,29.27,NNE,22,0.0,0.0,100,0.00,CLR,OVC,0.00,WeatherDisplay:10.37,2013-07-20 02:09:00,
2013-07-19 22:14:00,75.0,75.0,29.28,NNE,22,0.0,0.0,100,0.00,CLR,OVC,0.00,WeatherDisplay:10.37,2013-07-20 02:14:00,
2013-07-19 22:19:00,75.0,75.0,29.28,NNE,22,0.0,0.0,100,0.00,CLR,OVC,0.00,WeatherDisplay:10.37,2013-07-20 02:19:00,
2013-07-19 22:24:00,75.0,75.0,29.28,NNE,22,0.0,0.0,100,0.00,CLR,OVC,0.00,WeatherDisplay:10.37,2013-07-20 02:24:00,
2013-07-19 22:29:00,75.0,75.0,29.28,NNE,22,0.0,0.0,100,0.00,CLR,OVC,0.00,WeatherDisplay:10.37,2013-07-20 02:29:00,
2013-07-19 22:34:00,75.0,75.0,29.28,NNE,22,0.0,0.0,100,0.00,CLR,OVC,0.00,WeatherDisplay:10.37,2013-07-20 02:34:00,
2013-07-19 22:39:00,74.0,74.0,29.28,NNE,22,0.0,0.0,100,0.00,CLR,OVC,0.00,WeatherDisplay:10.37,2013-07-20 02:39:00,
2013-07-19 22:44:00,74.0,74.0,29.28,NNE,22,0.0,0.0,100,0.00,CLR,OVC,0.00,WeatherDisplay:10.37,2013-07-20 02:44:00,
2013-07-19 22:49:00,74.0,74.0,29.28,NNE,22,0.0,0.0,100,0.00,CLR,OVC,0.00,WeatherDisplay:10.37,2013-07-20 02:49:00,
2013-07-19 22:54:00,74.0,74.0,29.28,NNE,22,0.0,0.0,100,0.00,CLR,OVC,0.00,WeatherDisplay:10.37,2013-07-20 02:54:00,
2013-07-19 22:59:00,74.0,74.0,29.28,NNE,22,0.0,0.0,100,0.00,CLR,OVC,0.00,WeatherDisplay:10.37,2013-07-20 02:59:00,
2013-07-19 23:04:00,74.0,74.0,29.29,NNE,22,0.0,0.0,100,0.00,CLR,OVC,0.00,WeatherDisplay:10.37,2013-07-20 03:04:00,
2013-07-19 23:09:00,74.0,74.0,29.29,NNW,337,0.0,0.0,100,0.00,CLR,OVC,0.00,WeatherDisplay:10.37,2013-07-20 03:09:00,
2013-07-19 23:14:00,74.0,74.0,29.28,NNW,337,0.0,0.0,100,0.00,CLR,OVC,0.00,WeatherDisplay:10.37,2013-07-20 03:14:00,
2013-07-19 23:19:00,75.0,75.0,29.28,West,270,0.0,0.0,100,0.00,CLR,OVC,0.00,WeatherDisplay:10.37,2013-07-20 03:19:00,
2013-07-19 23:24:00,75.0,75.0,29.28,WSW,247,0.0,0.0,100,0.00,CLR,OVC,0.00,WeatherDisplay:10.37,2013-07-20 03:24:00,
2013-07-19 23:29:00,74.0,74.0,29.28,WSW,247,0.0,0.0,100,0.00,CLR,OVC,0.00,WeatherDisplay:10.37,2013-07-20 03:29:00,
2013-07-19 23:34:00,74.0,74.0,29.28,NW,315,0.0,0.0,100,0.00,CLR,OVC,0.00,WeatherDisplay:10.37,2013-07-20 03:34:00,
2013-07-19 23:39:00,74.0,74.0,29.28,NNW,337,0.0,0.0,100,0.00,CLR,OVC,0.00,WeatherDisplay:10.37,2013-07-20 03:39:00,
2013-07-19 23:44:00,74.0,74.0,29.28,NNW,337,0.0,0.0,100,0.00,CLR,OVC,0.00,WeatherDisplay:10.37,2013-07-20 03:44:00,
2013-07-19 23:49:00,74.0,74.0,29.28,NNW,337,0.0,0.0,100,0.00,CLR,OVC,0.00,WeatherDisplay:10.37,2013-07-20 03:49:00,
2013-07-19 23:54:00,74.0,74.0,29.28,WNW,292,0.0,0.0,100,0.00,CLR,OVC,0.00,WeatherDisplay:10.37,2013-07-20 03:54:00,
2013-07-19 23:59:00,74.0,74.0,29.28,WNW,292,0.0,0.0,100,0.00,CLR,OVC,0.00,WeatherDisplay:10.37,2013-07-20 03:59:00,